User: anonymous   Login
Location: Unspecified
(34.4500°N, 0.0000°E)
Time: 07:55:00
(UTC+00:00)
Language:

PRISM - Orbit

View from above orbital plane
View from above orbital plane
View from above satellite
View from above satellite

Ground track
Ground track

The orbit data is extracted from the following two-line orbital elements,

1 33493U 09002B   21128.84231737  .00001244  00000-0  11171-3 0  9997
2 33493  98.1863  89.4841 0016649  61.4625 298.8269 14.97610645668392
Epoch (UTC): 08 May 2021 20:12:56
Eccentricity: 0.0016649
inclination: 98.1863°
perigee height: 563 km
apogee height: 586 km
right ascension of ascending node: 89.4841°
argument of perigee: 61.4625°
revolutions per day: 14.97610645
mean anomaly at epoch: 298.8269°
orbit number at epoch: 66839

The dashed part of the orbit path shows where the satellite is in the earth's shadow,  

DLR